Content
SEND FEEDBACK

Daily
Averages
Monthly
Summary
United States of America

ROSEDALE, MISSISSIPPI


Home > North America > United States > Mississippi
Elevation: 144 feet     Latitude: 33 51N     Longitude: 091 01W

WEATHER
 
SELECT A DAY
Number of Records: 169,521;   Date Range: 1/1/95 - 8/12/14
 
SHARE

PRINT THIS DATA

[ ← Previous Day ]
WEATHER ALMANAC - FEBRUARY 13, 2013
[ Next Day → ]
[ °C ]   °F
Weather ElementAverageHighLow
Temperature45 °F51.8 °F (4:46 pm)37 °F (11:53 pm)
Dewpoint40.3 °F44.6 °F (1:15 am)35.1 °F (11:53 pm)
Humidity84.3 %97 % (1:53 am)58 % (4:46 pm)
Barometer29.98 in30.10 in (10:53 pm)29.81 in (2:22 am)
Wind Speed9.1 mph15 mph (7:25 am)
Wind Gust23 mph (12:53 pm)
Weather ElementAverage
Visibility9.6 mi
Wind DirectionW (274 °)

Weather ElementTotal
Precipitation0.01 in
Heating Degree Days20.6 (Base 65)
Averaged from 42 records on February 13, 2013
WEATHER CONDITIONS BREAKOUT
WIND DIRECTION BREAKOUT
WEATHER BY HOUR - FEBRUARY 13, 2013
[ °C ]   °F
Local TimeTemperatureDewpointHumidityBarometerVisibilityWind DirectionWind SpeedGust SpeedPrecipitationEventsConditions
1:15 AM46.4 °F44.6 °F93 %29.82 in5.0 miWNW (290°)9.2 mphOvercast
1:53 AM45.0 °F44.1 °F97 %29.84 in5.0 miWNW (300°)12.7 mph0.01 inOvercast
2:22 AM44.6 °F42.8 °F93 %29.81 in10.0 miWNW (290°)8.1 mphOvercast
2:29 AM44.6 °F42.8 °F93 %29.83 in10.0 miWest (280°)9.2 mphOvercast
2:53 AM45.0 °F43.0 °F93 %29.87 in10.0 miWNW (290°)11.5 mphOvercast
3:11 AM44.6 °F42.8 °F93 %29.85 in10.0 miWest (280°)10.4 mphOvercast
3:32 AM44.6 °F42.8 °F93 %29.86 in10.0 miWest (270°)10.4 mphOvercast
3:53 AM45.0 °F43.0 °F93 %29.90 in10.0 miWest (280°)9.2 mphOvercast
4:17 AM44.6 °F42.8 °F93 %29.88 in10.0 miWNW (290°)11.5 mphOvercast
4:50 AM44.6 °F42.8 °F93 %29.89 in10.0 miWest (280°)8.1 mphOvercast
4:53 AM45.0 °F42.1 °F90 %29.92 in10.0 miWest (280°)8.1 mphOvercast
5:00 AM44.6 °F42.8 °F93 %29.89 in9.0 miWest (280°)9.2 mphOvercast
5:53 AM45.0 °F42.1 °F90 %29.95 in10.0 miWest (280°)6.9 mph0.00 inOvercast
5:59 AM44.6 °F42.8 °F93 %29.93 in10.0 miWNW (290°)8.1 mphOvercast
6:28 AM44.6 °F42.8 °F93 %29.93 in10.0 miWNW (300°)6.9 mph0.00 inRainLight Rain
6:50 AM44.6 °F42.8 °F93 %29.94 in10.0 miNW (310°)8.1 mph0.00 inOvercast
6:53 AM44.1 °F42.1 °F93 %29.97 in10.0 miNW (310°)8.1 mph0.00 inOvercast
7:12 AM44.6 °F41.0 °F87 %29.97 in10.0 miWNW (300°)11.5 mphOvercast
7:25 AM42.8 °F41.0 °F93 %29.96 in10.0 miNW (310°)15.0 mphOvercast
7:53 AM43.0 °F41.0 °F93 %30.01 in5.0 miNW (310°)11.5 mph0.00 inRainLight Rain
8:53 AM43.0 °F39.9 °F89 %30.03 in10.0 miWNW (290°)10.4 mph0.00 inOvercast
9:53 AM43.0 °F39.0 °F86 %30.06 in10.0 miWest (280°)11.5 mphOvercast
10:53 AM44.1 °F39.0 °F82 %30.08 in10.0 miWNW (290°)13.8 mphOvercast
11:07 AM44.6 °F39.2 °F81 %30.05 in10.0 miNW (310°)13.8 mphOvercast
11:53 AM45.0 °F39.0 °F80 %30.07 in10.0 miWNW (300°)15.0 mphOvercast
12:53 PM46.0 °F39.0 °F76 %30.04 in10.0 miNNW (330°)12.7 mph23.0 mphOvercast
1:53 PM48.9 °F39.9 °F71 %30.03 in10.0 miWNW (300°)12.7 mph18.4 mphMostly Cloudy
2:02 PM48.2 °F39.2 °F71 %30.01 in10.0 miWNW (300°)10.4 mphScattered Clouds
2:15 PM48.2 °F39.2 °F71 %30.01 in10.0 miNW (320°)12.7 mphMostly Cloudy
2:53 PM48.0 °F37.9 °F68 %30.03 in10.0 miNNW (330°)9.2 mphOvercast
3:21 PM48.2 °F37.4 °F66 %30.00 in10.0 miNNW (330°)8.1 mphScattered Clouds
3:53 PM50.0 °F39.0 °F66 %30.03 in10.0 miNNW (340°)8.1 mphScattered Clouds
4:03 PM50.0 °F37.4 °F62 %30.01 in10.0 miNW (320°)5.8 mphMostly Cloudy
4:46 PM51.8 °F37.4 °F58 %30.01 in10.0 miWNW (290°)9.2 mphOvercast
4:53 PM50.0 °F37.9 °F63 %30.04 in10.0 miWNW (300°)8.1 mphOvercast
5:53 PM48.0 °F37.0 °F66 %30.04 in10.0 miCalmClear
6:53 PM42.1 °F37.0 °F82 %30.06 in10.0 miSouth (180°)3.5 mphClear
7:53 PM42.1 °F39.0 °F89 %30.07 in10.0 miSSE (160°)3.5 mphClear
8:53 PM42.1 °F39.0 °F89 %30.08 in10.0 miSouth (180°)4.6 mphMostly Cloudy
9:53 PM39.9 °F37.0 °F89 %30.09 in10.0 miSouth (190°)5.8 mphPartly Cloudy
10:53 PM39.9 °F37.0 °F89 %30.10 in10.0 miSouth (170°)6.9 mphClear
11:53 PM37.0 °F35.1 °F93 %30.10 in10.0 miSouth (180°)4.6 mphClear
Hourly data recorded from KGLH, located miles away from Rosedale, Mississippi







STORIES FROM OUR PARTNERS